User: anonymous   Login
Location: Trois-Rivi�res
(46.3500°N, 72.5500°W)
Time: 22:13:41
(UTC-04:00)
Language:

Cosmos 1975 - Orbit

View from above orbital plane
View from above orbital plane
View from above satellite
View from above satellite

Ground track
Ground track

The orbit data is extracted from the following two-line orbital elements,

1 19573U 88093A   17231.13489823 +.00000033 +00000-0 +27785-6 0  9996
2 19573 082.5194 284.5795 0016243 085.8574 274.4508 15.04210453548135
Epoch (UTC): 19 August 2017 03:14:15
Eccentricity: 0.0016243
inclination: 82.5194°
perigee height: 542 km
apogee height: 565 km
right ascension of ascending node: 284.5795°
argument of perigee: 85.8574°
revolutions per day: 15.04210453
mean anomaly at epoch: 274.4508°
orbit number at epoch: 54813

The dashed part of the orbit path shows where the satellite is in the earth's shadow,  

DLR